Theta_e
308 308 308 309 309 309 309 310 310 311 312 314 315 316 316 316 316 318 318 315 315 311 312 315 316 316 318 319 318 317 318 318 317 318 320 319 318 317 317 318 317 315 315 312 311
308 308 308 309 309 309 309 310 310 311 313 316 317 318 317 317 317 318 316 313 313 312 314 315 315 315 317 319 319 319 318 317 316 317 318 319 318 318 317 317 317 315 313 311 312
310 309 308 308 309 309 310 310 311 311 313 315 317 318 318 316 320 317 314 314 312 312 314 314 316 316 317 318 319 318 317 315 314 316 318 318 318 317 317 317 317 317 315 311 311
310 310 309 309 309 310 310 311 311 314 315 316 318 318 318 317 319 314 313 313 312 312 315 316 316 318 318 318 318 318 317 316 317 316 317 317 317 317 317 316 312 312 311 311 311
311 311 310 310 311 311 311 312 314 315 317 318 318 318 317 319 320 315 311 312 312 313 315 316 316 318 319 317 317 318 318 317 317 317 317 316 317 317 316 312 310 309 309 309 309
312 312 311 312 313 313 313 313 314 316 318 319 319 318 317 320 316 315 313 311 313 314 314 315 316 316 316 316 317 317 317 317 316 316 316 315 317 315 313 311 310 309 309 308 307
312 313 313 313 314 314 314 314 315 316 318 319 319 316 318 320 317 316 315 313 312 313 314 315 315 315 316 317 315 316 317 319 318 317 316 315 316 315 312 311 310 309 309 307 305
314 314 314 314 314 315 315 314 315 317 319 319 318 316 320 316 317 316 314 313 312 312 313 313 314 315 316 315 315 317 318 321 319 315 314 315 321 316 311 311 312 311 310 307 306
318 317 317 316 315 316 316 315 316 318 319 318 319 318 321 312 315 316 315 315 312 312 312 312 315 316 315 317 320 319 321 322 321 315 315 315 321 314 311 311 313 311 309 307 306
319 318 318 318 317 317 316 315 317 318 318 317 317 319 318 316 313 315 312 313 314 313 314 314 315 316 317 319 322 323 322 321 321 317 315 317 317 314 311 312 313 311 309 307 306
321 320 319 318 317 317 316 320 321 322 318 321 321 320 316 309 310 313 312 312 314 315 317 316 317 319 319 318 319 320 320 321 320 316 315 318 318 318 313 311 312 311 309 307 306
322 322 321 319 318 317 317 320 321 317 322 320 320 319 313 311 312 312 312 315 315 317 317 315 317 318 319 318 319 319 319 319 319 315 314 317 318 318 316 312 312 311 309 307 304
322 321 322 319 318 317 318 319 318 315 321 320 321 320 318 311 316 314 312 314 315 317 317 319 319 316 317 316 317 317 318 319 319 316 314 316 318 319 318 312 309 309 308 306 305
321 321 322 320 317 318 319 318 318 319 321 321 321 321 316 315 317 315 312 313 313 316 316 317 317 314 315 316 315 318 318 317 317 317 320 317 323 322 320 311 308 307 306 305 304
319 321 321 319 319 319 318 317 319 319 328 322 320 312 314 318 316 311 310 310 316 314 314 318 313 314 316 316 315 317 315 315 316 317 319 321 319 321 317 314 310 308 306 305 303
318 317 320 319 318 318 317 317 319 321 327 322 316 318 317 317 312 309 310 310 311 315 314 315 313 314 315 314 314 314 315 315 315 318 325 322 322 323 319 315 313 308 305 305 303
311 316 318 318 318 318 317 318 322 325 321 322 319 318 320 319 314 312 312 312 316 317 318 317 316 315 313 315 312 315 317 326 326 323 325 318 323 322 320 313 314 308 306 305 302
310 314 317 315 318 317 318 322 320 324 323 316 317 319 321 319 317 313 313 315 314 317 320 322 323 318 314 318 320 315 319 327 332 330 327 312 320 320 313 311 309 308 306 304 302
314 313 316 316 318 317 320 323 323 323 323 322 316 320 322 318 319 316 317 318 317 316 320 323 325 315 314 315 318 318 319 320 321 314 320 319 316 315 308 307 306 308 305 304 302
315 315 315 316 315 316 322 321 320 319 320 321 322 320 322 321 319 318 320 319 319 317 317 322 325 314 311 309 311 315 315 318 318 328 329 323 321 320 312 309 307 307 306 304 301
315 317 314 316 316 317 320 320 320 319 319 320 323 322 321 322 320 319 322 319 318 318 315 319 320 316 309 312 316 313 315 317 318 322 330 329 322 316 317 312 309 307 305 304 302
314 317 315 316 319 316 316 318 316 320 320 320 320 321 322 320 320 320 321 321 316 316 316 319 321 325 321 313 312 315 316 317 320 321 319 321 323 308 313 314 310 308 305 304 303
314 314 314 315 319 316 316 316 317 319 320 320 321 320 320 322 320 318 320 318 316 315 318 317 319 325 323 315 310 311 313 315 316 318 323 325 323 308 308 310 310 308 306 305 303
313 316 315 314 317 316 317 318 320 319 319 319 320 320 321 321 319 321 319 314 312 314 315 316 319 323 327 324 317 314 313 313 315 320 321 321 321 310 309 309 309 309 307 305 304
309 314 314 315 314 316 316 318 318 317 318 319 320 320 321 323 322 322 319 319 310 310 312 317 318 320 321 321 320 317 316 314 314 315 320 320 319 318 311 311 309 308 306 305 304
308 312 311 315 314 316 316 317 318 317 318 319 321 321 320 322 321 322 320 318 317 310 310 313 318 318 320 320 320 321 317 316 314 314 315 317 318 318 315 310 308 307 306 304 303
302 300 305 310 314 315 316 314 314 315 315 315 314 317 320 320 317 314 311 310 311 313 310 311 313 316 321 319 319 315 315 315 316 315 315 316 316 308 308 307 307 307 305 304 303
Wind_Speed
1 1 1 2 2 3 4 5 6 7 8 10 11 12 13 14 14 6 4 1 1 2 3 2 2 1 1 2 2 2 4 5 4 6 5 6 7 3 1 3 3 4 5 4 7
2 1 2 2 3 4 4 5 6 7 8 10 11 13 14 15 10 7 5 3 3 4 2 5 3 2 2 1 1 3 4 3 2 1 4 7 4 4 5 7 5 6 7 6 6
4 3 3 3 4 4 5 6 6 7 8 9 11 12 13 12 6 3 1 3 5 4 2 2 2 2 3 2 2 1 4 2 2 1 1 4 4 2 6 7 7 1 4 4 6
6 5 5 5 5 5 6 6 6 7 8 10 11 12 11 4 4 1 3 4 5 4 3 3 3 3 3 4 1 6 2 1 1 2 2 5 1 5 5 5 4 4 4 3 4
8 7 6 6 6 6 6 6 6 7 8 9 11 11 5 5 3 2 3 5 5 4 5 3 5 3 7 2 3 6 2 3 4 4 5 3 8 8 5 4 5 5 4 3 3
9 8 8 6 6 6 7 7 7 7 8 9 10 8 3 8 1 3 4 5 4 5 5 5 3 2 4 3 6 3 4 6 6 9 7 7 9 3 5 6 5 4 3 2 3
11 10 9 8 7 7 7 7 8 8 8 8 7 4 4 9 2 4 6 4 4 4 5 3 2 5 1 3 1 3 7 9 11 12 7 8 10 12 10 9 7 5 4 2 1
11 11 11 9 8 8 8 8 8 8 8 6 3 3 7 6 3 6 6 3 4 2 1 2 2 1 4 2 3 5 5 8 8 9 4 9 12 10 10 11 9 5 4 2 0
11 11 11 10 9 9 8 8 9 9 7 4 3 4 7 1 4 8 8 5 6 5 4 4 3 3 5 7 8 8 10 11 5 9 5 12 3 10 9 11 10 8 6 4 3
13 12 11 10 10 9 8 7 9 9 4 3 3 4 7 3 5 8 6 10 3 9 6 5 6 8 8 10 10 11 13 10 11 7 9 11 14 8 10 11 11 9 7 6 5
16 15 13 11 10 8 4 4 5 5 7 9 3 3 4 4 5 6 8 10 6 7 8 9 9 15 19 17 18 11 12 14 11 4 4 14 16 12 14 12 12 10 9 8 6
16 15 15 14 11 8 4 4 5 3 8 17 15 11 4 6 4 9 13 10 9 13 12 4 16 19 15 10 16 16 16 17 15 4 4 14 19 16 14 17 15 13 11 10 9
17 15 16 17 13 10 12 9 2 3 7 10 13 11 9 13 10 15 17 9 9 14 16 18 8 6 13 10 12 16 18 15 16 1 11 13 21 23 21 11 9 11 11 11 12
16 15 17 19 13 12 10 14 7 2 7 13 9 7 8 8 10 11 25 7 7 14 13 16 19 7 10 16 14 17 15 15 14 8 10 4 11 10 15 14 15 15 14 14 13
18 19 17 26 6 16 6 16 15 2 8 6 6 3 5 15 6 3 8 4 17 10 8 6 8 12 17 16 13 8 2 7 11 13 16 18 9 8 5 14 19 18 17 17 15
22 22 19 21 15 8 10 18 12 4 13 6 6 7 8 13 2 4 8 1 1 13 15 17 3 10 11 2 10 10 6 2 3 8 13 18 17 14 13 14 16 18 19 19 17
24 25 22 20 8 19 19 12 5 7 6 11 7 10 14 10 7 8 14 14 12 9 19 18 18 6 5 6 4 13 8 4 5 6 8 2 14 17 5 6 11 22 22 21 19
20 22 25 26 26 26 21 9 9 17 25 8 4 9 12 13 8 9 11 12 21 17 9 15 10 24 18 24 12 17 18 7 7 8 7 2 10 7 2 9 4 18 20 20 19
12 21 25 24 26 32 8 14 11 10 15 20 7 8 11 8 6 12 15 11 12 22 14 10 10 2 8 11 16 10 15 15 5 2 4 7 8 5 7 7 7 18 20 21 20
15 16 25 24 29 21 11 14 11 14 4 12 21 16 17 14 12 15 15 12 15 23 18 2 7 4 5 3 7 8 10 7 7 6 8 9 13 10 11 15 15 18 20 19 19
14 4 8 26 31 6 8 7 17 20 8 7 20 15 20 15 18 13 10 7 19 16 20 9 4 4 6 12 18 7 10 10 8 9 4 4 7 10 14 18 22 19 20 21 21
5 6 15 37 10 5 11 5 9 11 19 11 14 18 20 10 12 17 19 18 17 14 15 12 3 8 18 4 14 20 15 21 7 6 9 7 10 2 2 13 17 18 18 20 21
5 7 7 29 10 14 12 21 22 18 14 13 13 16 16 19 8 22 24 15 14 16 17 12 5 3 4 7 4 10 15 17 20 1 16 8 8 2 4 8 14 17 18 18 19
4 5 7 5 11 18 17 22 10 10 19 20 14 22 16 18 12 11 14 5 8 14 4 12 6 10 17 6 11 11 19 22 16 10 23 19 12 4 9 12 14 15 17 18 20
3 5 8 6 15 20 14 6 21 21 16 19 12 21 20 12 17 21 19 15 1 5 5 14 10 18 25 24 11 9 16 24 25 34 17 35 23 13 15 15 18 16 16 17 19
3 3 3 14 16 24 21 18 19 13 3 4 15 18 19 17 19 11 21 14 13 7 8 4 8 13 20 25 24 22 12 25 32 33 31 33 25 10 15 10 12 16 17 18 19
3 4 2 7 20 14 20 24 29 22 18 21 5 8 14 20 12 3 5 2 1 9 15 9 7 7 15 12 17 7 31 21 25 30 22 28 31 4 5 8 11 12 15 16 18
Wind_Direction
141 119 65 8 2 359 356 354 353 355 359 359 351 345 338 334 329 327 298 247 191 198 155 190 225 282 233 90 4 309 247 234 217 226 206 161 193 162 49 222 101 41 43 28 356
241 263 306 325 328 333 337 341 344 347 350 350 347 342 337 334 322 279 269 231 213 166 201 207 195 199 170 123 256 267 267 307 4 246 210 174 240 163 221 185 169 115 89 46 45
258 265 281 297 311 319 322 328 332 334 335 339 341 339 336 336 288 72 199 168 157 167 222 201 156 264 256 255 171 149 277 65 171 124 286 199 226 226 251 237 38 317 96 54 57
255 269 278 284 292 301 309 317 323 328 329 332 336 337 334 332 316 120 165 161 161 145 162 175 223 246 277 250 180 251 207 260 124 162 203 225 325 247 261 58 76 67 80 66 53
250 258 267 279 287 293 297 304 313 317 322 325 331 338 344 253 277 211 180 183 172 163 204 223 257 280 257 243 228 245 220 210 190 181 227 283 250 267 203 141 122 110 104 84 53
250 255 261 266 277 285 294 298 303 308 314 319 326 333 288 263 279 206 200 178 189 202 202 222 294 278 288 250 244 25 271 253 228 224 224 227 241 196 181 163 158 154 121 79 38
250 254 257 265 271 279 286 292 296 301 308 314 322 323 256 265 208 200 190 189 197 215 220 232 253 226 147 229 215 291 281 258 236 226 230 218 240 227 143 168 168 173 168 146 25
251 257 261 264 268 275 282 287 291 298 304 308 317 289 262 233 200 204 181 147 143 148 188 163 189 210 261 123 203 250 251 260 112 170 169 200 266 156 173 183 191 196 199 214 64
253 257 261 265 264 269 278 285 288 292 292 296 294 255 264 246 195 200 190 187 142 125 102 134 188 239 181 223 246 211 264 228 230 196 160 203 238 165 194 205 209 207 207 208 192
251 253 256 262 262 265 277 285 287 289 284 257 244 261 195 210 153 163 169 164 147 144 135 181 204 222 223 219 234 257 227 256 252 164 215 217 251 173 195 210 214 209 203 200 197
252 251 251 252 253 259 270 282 232 206 210 216 202 260 132 109 137 175 162 157 141 200 210 204 218 222 227 228 251 280 284 263 267 104 263 243 253 232 199 213 219 216 208 199 183
247 252 246 242 240 235 218 232 327 353 287 227 242 251 218 184 161 176 168 181 192 209 207 189 230 240 246 272 239 245 254 257 268 156 249 268 264 257 204 215 219 217 206 192 171
248 251 252 229 221 209 221 218 278 349 261 238 210 220 202 179 212 182 183 201 208 217 204 228 237 242 223 222 226 238 246 253 258 340 241 272 269 252 237 213 217 227 204 187 179
250 248 248 219 193 211 222 229 180 336 270 241 201 220 164 186 227 192 195 175 204 228 207 250 244 196 200 229 216 248 234 249 262 254 262 170 282 273 211 210 214 209 197 185 171
249 249 250 209 190 192 223 205 175 274 269 65 130 94 162 183 117 152 181 183 223 197 173 214 183 203 223 226 204 252 71 225 243 254 270 254 267 273 192 221 212 204 197 185 173
246 250 243 230 215 205 190 162 153 173 232 184 136 163 156 197 115 107 173 172 354 245 227 260 26 219 221 185 200 133 118 112 255 259 256 240 230 259 210 227 202 192 191 180 173
251 253 239 225 219 201 166 141 185 196 179 209 179 181 191 177 180 182 181 188 190 191 228 228 223 194 175 153 160 197 183 246 241 210 256 313 215 249 199 186 205 184 185 179 173
254 239 242 231 225 194 166 186 215 229 216 83 131 171 192 166 210 181 179 210 218 225 287 214 227 202 201 215 199 200 200 200 241 236 266 24 236 240 314 113 166 180 179 176 177
251 231 229 224 222 186 192 206 218 214 210 218 144 200 204 193 226 193 216 225 210 209 205 207 241 261 182 223 215 179 224 229 312 145 274 216 250 242 165 179 182 174 178 180 178
214 222 227 209 207 193 212 212 233 226 332 215 217 200 216 192 195 192 194 220 222 202 210 241 265 161 154 188 263 222 172 184 212 226 237 242 241 236 209 197 185 182 185 180 179
213 221 222 196 180 206 237 234 234 235 232 233 222 239 229 218 203 197 226 201 203 197 194 223 219 143 143 202 190 185 212 220 215 224 250 279 246 194 201 190 188 187 185 182 183
215 221 169 163 194 202 226 218 245 245 223 236 258 257 245 229 213 230 229 230 194 156 179 196 174 235 230 214 235 223 215 206 208 196 232 274 257 102 106 183 179 183 186 186 188
218 221 206 174 217 211 220 227 233 247 221 214 218 229 234 240 226 231 237 240 190 183 173 160 194 202 251 213 190 226 216 228 230 311 231 203 249 101 130 159 179 183 184 186 184
267 211 200 217 232 221 212 227 224 212 238 226 233 227 231 239 217 251 229 206 195 208 206 152 157 207 229 229 153 201 207 208 217 228 240 235 250 177 206 187 180 185 185 183 184
234 226 197 205 220 225 235 220 229 233 235 214 230 229 216 225 225 233 236 250 36 238 186 175 220 218 243 255 251 199 204 203 207 226 214 245 237 219 202 195 192 180 174 182 186
274 257 292 242 211 217 222 221 238 244 179 260 224 212 219 221 216 244 229 220 208 181 197 195 233 224 249 246 244 252 245 215 215 228 230 246 250 237 196 185 163 177 175 185 191
216 257 294 261 227 206 213 222 230 231 241 241 230 295 237 230 248 294 102 32 149 197 188 186 211 209 246 240 252 257 231 233 233 227 228 236 243 107 123 176 192 179 182 189 196